EW0609 Weather Reports


Display with metric or nautical units.
time (UTC)temp
F
wind
direction
speed
MPH
gust
MPH
rain 1hr
in
rain 24hr
in
rain mn
in
humidity
%
barometer
mb
20260504013726 72 231 5.0 9.0 0.00 0.00 0.00 31 1011.4
20260504013227 72 193 4.0 11.0 0.00 0.00 0.00 32 1011.4
20260504012726 72 212 4.0 11.0 0.00 0.00 0.00 30 1011.3
20260504012508 73 183 5.0 14.0 0.00 0.00 0.00 31 1011.3
20260504012354 73 210 5.0 14.0 0.00 0.00 0.00 30 1011.3
20260504011227 74 141 6.0 21.0 0.00 0.00 0.00 29 1011.3
20260504010728 74 243 9.0 21.0 0.00 0.00 0.00 29 1011.3
20260504010610 74 234 6.0 15.0 0.00 0.00 0.00 28 1011.4
20260504005727 74 207 7.0 15.0 0.00 0.00 0.00 29 1011.4
20260504005226 74 203 8.0 15.0 0.00 0.00 0.00 29 1011.5
20260504004728 74 241 4.0 16.0 0.00 0.00 0.00 29 1011.4
20260504004230 75 195 8.0 21.0 0.00 0.00 0.00 28 1011.4
20260504004111 75 186 8.0 21.0 0.00 0.00 0.00 29 1011.4
20260504003226 75 162 7.0 18.0 0.00 0.00 0.00 29 1011.5
20260504002727 75 103 7.0 17.0 0.00 0.00 0.00 28 1011.5
20260504002227 76 192 7.0 18.0 0.00 0.00 0.00 27 1011.5
20260504001726 76 202 9.0 19.0 0.00 0.00 0.00 27 1011.6
20260504001228 76 140 10.0 19.0 0.00 0.00 0.00 27 1011.4
20260504000726 76 293 8.0 17.0 0.00 0.00 0.00 27 1011.4
20260504000227 77 190 8.0 16.0 0.00 0.00 0.00 27 1011.6
20260503235727 77 193 10.0 17.0 0.00 0.00 0.00 26 1011.7
20260503235226 77 238 8.0 17.0 0.00 0.00 0.00 26 1011.6
20260503234725 77 226 9.0 18.0 0.00 0.00 0.00 26 1011.6
20260503234227 78 185 6.0 18.0 0.00 0.00 0.00 26 1011.6
20260503233726 78 196 6.0 18.0 0.00 0.00 0.00 24 1011.7
20260503233616 78 203 7.0 18.0 0.00 0.00 0.00 22 1011.7
20260503232727 78 306 5.0 16.0 0.00 0.00 0.00 23 1011.7
20260503232227 78 221 8.0 16.0 0.00 0.00 0.00 23 1011.7
20260503231727 78 196 6.0 19.0 0.00 0.00 0.00 24 1011.6
20260503231225 79 238 10.0 19.0 0.00 0.00 0.00 21 1011.6
20260503230725 79 217 8.0 16.0 0.00 0.00 0.00 20 1011.7
20260503230227 79 221 9.0 16.0 0.00 0.00 0.00 20 1011.7
20260503225726 79 162 6.0 17.0 0.00 0.00 0.00 21 1011.8
20260503225227 78 157 6.0 17.0 0.00 0.00 0.00 22 1012.0
20260503224728 79 206 7.0 16.0 0.00 0.00 0.00 21 1011.9
20260503224615 79 192 6.0 17.0 0.00 0.00 0.00 23 1011.9
20260503223726 79 276 9.0 18.0 0.00 0.00 0.00 23 1012.2
20260503223227 79 252 9.0 18.0 0.00 0.00 0.00 23 1012.0
20260503222726 79 161 9.0 18.0 0.00 0.00 0.00 24 1012.3
20260503222226 78 183 9.0 18.0 0.00 0.00 0.00 24 1012.4
20260503221726 79 200 8.0 18.0 0.00 0.00 0.00 23 1012.5
20260503221452 79 255 9.0 18.0 0.00 0.00 0.00 24 1012.5
20260503214726 79 227 7.0 19.0 0.00 0.00 0.00 24 1013.2
20260503214228 79 196 6.0 17.0 0.00 0.00 0.00 24 1013.0
20260503213727 78 185 9.0 16.0 0.00 0.00 0.00 25 1013.2
20260503213226 79 286 9.0 20.0 0.00 0.00 0.00 24 1013.3
20260503212727 80 209 11.0 20.0 0.00 0.00 0.00 25 1013.5
20260503212227 79 217 10.0 18.0 0.00 0.00 0.00 23 1013.4
20260503211726 79 303 9.0 18.0 0.00 0.00 0.00 25 1013.7
20260503211226 80 227 7.0 19.0 0.00 0.00 0.00 24 1013.7
20260503210726 80 213 11.0 19.0 0.00 0.00 0.00 25 1013.8
20260503210615 79 209 8.0 16.0 0.00 0.00 0.00 26 1013.8
20260503210124 80 212 6.0 16.0 0.00 0.00 0.00 25 1014.0
20260503205226 80 233 7.0 23.0 0.00 0.00 0.00 25 1014.0
20260503204725 79 190 10.0 23.0 0.00 0.00 0.00 25 1014.3
20260503204226 78 237 7.0 19.0 0.00 0.00 0.00 25 1014.4
20260503203729 79 213 10.0 19.0 0.00 0.00 0.00 24 1014.5
20260503203547 79 238 9.0 20.0 0.00 0.00 0.00 25 1014.5
20260503202728 78 154 12.0 20.0 0.00 0.00 0.00 25 1014.7
20260503202228 78 228 8.0 16.0 0.00 0.00 0.00 27 1014.8
20260503201727 78 190 7.0 21.0 0.00 0.00 0.00 27 1015.1
20260503201228 78 261 7.0 21.0 0.00 0.00 0.00 29 1015.2
20260503200726 78 197 9.0 18.0 0.00 0.00 0.00 26 1015.2
20260503200227 77 252 7.0 18.0 0.00 0.00 0.00 28 1015.3
20260503195726 77 230 8.0 18.0 0.00 0.00 0.00 26 1015.5
20260503195225 79 219 10.0 18.0 0.00 0.00 0.00 28 1015.5
20260503194727 77 234 9.0 16.0 0.00 0.00 0.00 29 1015.4
20260503194227 78 206 9.0 16.0 0.00 0.00 0.00 28 1015.6
20260503193727 77 265 9.0 16.0 0.00 0.00 0.00 27 1015.6
20260503193226 78 188 5.0 16.0 0.00 0.00 0.00 28 1015.6
20260503193125 77 250 10.0 16.0 0.00 0.00 0.00 29 1015.8
20260503192226 78 244 6.0 24.0 0.00 0.00 0.00 29 1015.8
20260503191727 77 213 10.0 24.0 0.00 0.00 0.00 27 1015.8
20260503191227 77 227 10.0 22.0 0.00 0.00 0.00 29 1015.9
20260503191134 77 247 4.0 16.0 0.00 0.00 0.00 29 1016.1
20260503190226 77 165 9.0 21.0 0.00 0.00 0.00 27 1016.3
20260503185724 77 219 11.0 21.0 0.00 0.00 0.00 27 1016.3
20260503185227 77 203 7.0 16.0 0.00 0.00 0.00 28 1016.3
20260503184728 78 199 6.0 16.0 0.00 0.00 0.00 29 1016.5
20260503184226 78 233 8.0 16.0 0.00 0.00 0.00 29 1016.5
20260503183725 77 283 5.0 13.0 0.00 0.00 0.00 27 1016.6
20260503183225 76 157 7.0 13.0 0.00 0.00 0.00 27 1016.7
20260503182726 76 269 5.0 17.0 0.00 0.00 0.00 27 1016.7
20260503182226 76 216 6.0 17.0 0.00 0.00 0.00 28 1017.2
20260503181725 75 257 6.0 12.0 0.00 0.00 0.00 29 1016.9
20260503181627 76 179 8.0 15.0 0.00 0.00 0.00 30 1017.2
20260503180726 75 179 8.0 16.0 0.00 0.00 0.00 29 1017.4
20260503180226 74 228 8.0 16.0 0.00 0.00 0.00 29 1017.5
20260503180141 75 193 8.0 14.0 0.00 0.00 0.00 30 1017.5
20260503175226 75 238 6.0 15.0 0.00 0.00 0.00 32 1017.5
20260503174725 75 157 7.0 20.0 0.00 0.00 0.00 32 1017.4
20260503174227 74 278 12.0 20.0 0.00 0.00 0.00 31 1017.7
20260503173726 74 164 7.0 22.0 0.00 0.00 0.00 32 1017.7
20260503173225 74 237 10.0 22.0 0.00 0.00 0.00 33 1017.8
20260503172726 74 206 7.0 19.0 0.00 0.00 0.00 33 1017.8
20260503172227 73 162 9.0 20.0 0.00 0.00 0.00 33 1018.1
20260503172127 73 261 7.0 20.0 0.00 0.00 0.00 34 1018.0
20260503171225 73 224 6.0 15.0 0.00 0.00 0.00 33 1018.2
20260503171122 72 185 7.0 15.0 0.00 0.00 0.00 37 1018.4
20260503170633 72 244 8.0 20.0 0.00 0.00 0.00 36 1018.5
20260503150726 65 265 9.0 16.0 0.00 0.00 0.00 49 1019.7
20260503150225 65 272 7.0 21.0 0.00 0.00 0.00 49 1019.8
20260503150129 65 219 13.0 21.0 0.00 0.00 0.00 50 1019.8
20260503140226 59 288 6.0 13.0 0.00 0.00 0.00 57 1020.2
20260503131226 53 331 6.0 12.0 0.00 0.00 0.00 67 1019.7
20260503130725 53 245 6.0 12.0 0.00 0.00 0.00 68 1019.8
20260503130228 52 245 4.0 13.0 0.00 0.00 0.00 69 1019.7
20260503110225 51 276 5.0 11.0 0.00 0.00 0.00 70 1019.2
20260503100123 51 224 4.0 13.0 0.00 0.00 0.00 67 1019.4
20260503090225 52 298 5.0 13.0 0.00 0.00 0.00 61 1019.3
20260503081227 53 268 5.0 12.0 0.00 0.00 0.00 57 1019.3
20260503081125 53 252 6.0 13.0 0.00 0.00 0.00 56 1019.3
20260503080225 53 286 5.0 13.0 0.00 0.00 0.00 55 1019.3
20260503072725 54 237 6.0 13.0 0.00 0.00 0.00 52 1019.5
20260503072226 55 241 5.0 12.0 0.00 0.00 0.00 51 1019.7
20260503071725 55 223 4.0 10.0 0.00 0.00 0.00 51 1019.6
20260503071229 54 226 4.0 11.0 0.00 0.00 0.00 51 1019.6
20260503071128 55 237 5.0 11.0 0.00 0.00 0.00 50 1019.7
20260503070625 55 281 4.0 12.0 0.00 0.00 0.00 50 1019.7
20260503060225 56 248 3.0 11.0 0.00 0.00 0.00 43 1019.7
20260503060111 57 261 4.0 9.0 0.00 0.00 0.00 42 1019.8
20260503054724 57 265 3.0 6.0 0.00 0.00 0.00 41 1019.7
20260503054224 57 243 4.0 7.0 0.00 0.00 0.00 41 1019.7
20260503054118 58 254 3.0 11.0 0.00 0.00 0.00 41 1019.6
20260503053226 58 250 5.0 11.0 0.00 0.00 0.00 40 1019.6
20260503052725 58 247 4.0 13.0 0.00 0.00 0.00 39 1019.7
20260503052225 59 274 4.0 13.0 0.00 0.00 0.00 39 1019.6
20260503052122 59 269 3.0 9.0 0.00 0.00 0.00 39 1019.7
20260503051224 59 240 4.0 10.0 0.00 0.00 0.00 39 1019.7
20260503050725 59 251 4.0 11.0 0.00 0.00 0.00 40 1019.7
20260503050622 58 234 5.0 11.0 0.00 0.00 0.00 39 1019.7
20260503045726 58 241 2.0 5.0 0.00 0.00 0.00 39 1019.6
20260503045224 59 240 3.0 5.0 0.00 0.00 0.00 38 1019.6
20260503044726 59 245 3.0 6.0 0.00 0.00 0.00 38 1019.7
20260503044224 59 193 4.0 6.0 0.00 0.00 0.00 37 1019.7
20260503043724 59 224 2.0 5.0 0.00 0.00 0.00 37 1019.6
20260503043224 59 230 3.0 5.0 0.00 0.00 0.00 37 1019.6
20260503042727 59 255 3.0 5.0 0.00 0.00 0.00 38 1019.6
20260503042224 59 237 3.0 6.0 0.00 0.00 0.00 36 1019.5
20260503041725 59 248 2.0 6.0 0.00 0.00 0.00 38 1019.6
20260503041224 60 219 1.0 6.0 0.00 0.00 0.00 37 1019.6
20260503040723 60 219 1.0 6.0 0.00 0.00 0.00 37 1019.7
20260503040619 60 233 3.0 6.0 0.00 0.00 0.00 36 1019.6
20260503035725 60 230 2.0 6.0 0.00 0.00 0.00 36 1019.7
20260503035224 60 214 2.0 6.0 0.00 0.00 0.00 36 1019.6
20260503035120 60 227 1.0 6.0 0.00 0.00 0.00 37 1019.8
20260503034225 59 235 3.0 4.0 0.00 0.00 0.00 40 1019.7
20260503033725 58 233 0.0 0.0 0.00 0.00 0.00 40 1019.7
20260503033224 58 233 0.0 0.0 0.00 0.00 0.00 41 1019.7
20260503032725 59 250 0.0 2.0 0.00 0.00 0.00 40 1019.5
20260503032224 58 237 1.0 3.0 0.00 0.00 0.00 43 1019.6
20260503031724 58 224 0.0 3.0 0.00 0.00 0.00 49 1019.5
20260503031226 58 223 0.0 0.0 0.00 0.00 0.00 42 1019.4
20260503030727 58 206 0.0 0.0 0.00 0.00 0.00 40 1019.4
20260503030224 58 202 0.0 0.0 0.00 0.00 0.00 39 1019.3
20260503025724 59 202 0.0 0.0 0.00 0.00 0.00 38 1019.4
20260503025620 59 197 0.0 0.0 0.00 0.00 0.00 37 1019.3
20260503024724 59 224 0.0 0.0 0.00 0.00 0.00 37 1019.2
20260503024225 60 227 0.0 0.0 0.00 0.00 0.00 39 1019.2
20260503024140 59 227 0.0 0.0 0.00 0.00 0.00 41 1019.1
20260503023639 60 227 0.0 0.0 0.00 0.00 0.00 43 1019.1
20260503022724 60 227 0.0 0.0 0.00 0.00 0.00 44 1019.1
20260503022626 60 233 0.0 0.0 0.00 0.00 0.00 35 1019.1
20260503021727 61 233 0.0 0.0 0.00 0.00 0.00 35 1019.1
20260503021226 62 235 0.0 2.0 0.00 0.00 0.00 34 1019.1
20260503020725 62 230 0.0 2.0 0.00 0.00 0.00 33 1019.0
20260503020225 62 217 0.0 2.0 0.00 0.00 0.00 32 1019.0
20260503015724 63 217 0.0 3.0 0.00 0.00 0.00 32 1018.8
20260503015226 63 227 1.0 3.0 0.00 0.00 0.00 31 1018.8
20260503014724 62 212 1.0 3.0 0.00 0.00 0.00 40 1018.7
20260503014224 63 228 0.0 3.0 0.00 0.00 0.00 39 1018.7